YAOGAN-50 02 DEB

基本信息
目录编号:
100576
目录名称:
YAOGAN-50 02 DEB
国际标识:
2026-051Q
轨道中心:
EARTH
物体状态:
在轨
发射日期:
--
轨道信息
数据来源: 国际轨道数据
星历时间: 2026-09-05T12:56:56+0800
半长轴: 7216.178km
偏心率: 0.0340024
轨道倾角: 141.910°
近地点辐角: 4.590°
升交点赤经: 6.055°
平近点角: 355.788°
近地点: 592.673km
远地点: 1083.409km
周期: 101.676分钟
每日圈数: 14.162565
详细信息
轨道高度:
LEO
数据来源:
AOE Integration Group
参考系:
TEME
时间系统:
UTC
历元类型:
SGP4
2D轨道图
3D轨道图
轨道高度分析图
轨道倾角分析图
轨道综合分析图
查看轨道综合分析图